Regional Weather Roundup
Issued by NWS Little Rock, AR

Home | Current Version | Previous Version | Graphics & Text | Print | Product List | Glossary On
Versions: 1 2 3 4 5 6 7 8 9 10 11 12 13 14 15 16 17 18 19 20 21 22 23 24 25 26 27 28 29 30 31 32 33 34 35 36 37 38 39 40 41 42 43 44 45 46 47 48 49 50
000
ASUS44 KLZK 300405
RWRLZK

WEATHER ROUNDUP FOR ARKANSAS
NATIONAL WEATHER SERVICE LITTLE ROCK AR
1100 PM CDT MON SEP 29 2014

NOTE: "FAIR" INDICATES FEW OR NO CLOUDS BELOW 12,000 FEET WITH NO
SIGNIFICANT WEATHER AND/OR OBSTRUCTIONS TO VISIBILITY.

ARZ001-003-010-029-300500-
NORTHWEST ARKANSAS

CITY           SKY/WX    TMP DP  RH WIND       PRES   REMARKS
FAYETTEVILLE   CLEAR     61  61 100 CALM      29.99F
FORT SMITH     CLEAR     68  63  84 NE5       29.94S
HARRISON       CLEAR     64  60  87 SE3       29.99S
BENTONVILLE    CLEAR     64  57  77 SE5       29.99S
ROGERS         CLEAR     68  60  75 SE5       30.00S
SILOAM SPGS    CLEAR     64  55  72 E3        29.99S
HIGHFILL       CLEAR     63  58  83 CALM      29.98F
$$

ARZ004-005-016-300500-
NORTH CENTRAL ARKANSAS

CITY           SKY/WX    TMP DP  RH WIND       PRES   REMARKS
BATESVILLE     CLEAR     66  57  72 NW3       29.96S
FLIPPIN        CLEAR     64  54  68 CALM      29.98R
MTN HOME       CLEAR     70  59  68 SE3       29.97S
$$

ARZ040-041-300500-
WEST CENTRAL ARKANSAS

CITY           SKY/WX    TMP DP  RH WIND       PRES   REMARKS
MENA             N/A    N/A N/A N/A CALM      29.98S
MOUNT IDA      CLEAR     64  62  93 CALM      29.95S FOG
$$

ARZ009-017-025-026-028-300500-
NORTHEAST ARKANSAS

CITY           SKY/WX    TMP DP  RH WIND       PRES   REMARKS
CORNING          N/A     63  57  82 NW3       29.96S
JONESBORO      CLEAR     64  56  75 CALM      29.95S
NEWPORT        CLOUDY    65  59  81 N9        29.96S HAZE
WALNUT RIDGE   CLEAR     66  57  72 CALM      29.94S
BLYTHEVILLE    CLEAR     65  57  75 CALM      29.95S
$$

ARZ022-023-033-042-044-300500-
CENTRAL ARKANSAS

CITY           SKY/WX    TMP DP  RH WIND       PRES   REMARKS
LITTLE ROCK    CLEAR     68  60  75 CALM      29.95S
N LITTLE ROCK  CLEAR     71  60  68 CALM      29.95S
JACKSONVILLE   CLEAR     64  60  87 CALM      29.95S
SEARCY         CLEAR     64  60  87 CALM      29.96S
HOT SPRINGS    CLEAR     66  60  81 CALM      29.96S
RUSSELLVILLE   CLEAR     66  63  90 CALM      29.95S
CLINTON        FAIR      63  63 100 CALM      29.99R
$$

ARZ036-300500-
EAST ARKANSAS

CITY           SKY/WX    TMP DP  RH WIND       PRES   REMARKS
WEST MEMPHIS   CLEAR     64  60  87 CALM      29.93F
$$

ARZ050-053-066-070-073-300500-
SOUTHWEST ARKANSAS

CITY           SKY/WX    TMP DP  RH WIND       PRES   REMARKS
ARKADELPHIA    FAIR      65  65 100 CALM      29.95R FOG
CAMDEN         CLEAR     64  59  82 CALM      29.93S
TEXARKANA      CLEAR     69  62  78 CALM      29.93F
EL DORADO      CLEAR     66  62  87 CALM      29.93F
DE QUEEN       CLEAR     65  64  97 E3        29.92F FOG
$$

ARZ056-057-069-300500-
SOUTHEAST ARKANSAS

CITY           SKY/WX    TMP DP  RH WIND       PRES   REMARKS
PINE BLUFF     CLEAR     66  61  84 CALM      29.94S
STUTTGART      CLEAR    N/A N/A N/A NE3       29.95S
MONTICELLO     LGT RAIN  69  62  78 CALM      29.93F

$$





USA.gov is the U.S. government's official web portal to all federal, state and local government web resources and services.